GW2624 Weather Reports


Display with metric or nautical units.
time (UTC)temp
F
wind
direction
speed
MPH
gust
MPH
rain 1hr
in
rain 24hr
in
rain mn
in
humidity
%
barometer
mb
20260904140905 64 140 0.0 3.0 0.00 0.01 0.01 76 1007.1
20260904140405 64 140 0.0 3.0 0.00 0.01 0.01 75 1007.2
20260904133405 63 154 2.0 3.0 0.00 0.01 0.01 76 1006.8
20260904132905 63 138 1.0 5.0 0.00 0.01 0.01 75 1006.8
20260904132405 63 147 1.0 5.0 0.00 0.01 0.01 76 1006.7
20260904130905 63 132 1.0 3.0 0.00 0.01 0.01 76 1006.6
20260904125905 63 150 2.0 3.0 0.00 0.01 0.01 76 1006.5
20260904125405 63 143 1.0 3.0 0.00 0.01 0.01 77 1006.4
20260904124905 63 143 0.0 2.0 0.00 0.01 0.01 76 1006.3
20260904120905 63 147 1.0 3.0 0.01 0.01 0.01 78 1006.1
20260904120405 63 145 1.0 3.0 0.01 0.01 0.01 78 1006.1
20260904115405 64 59 2.0 5.0 0.01 0.01 0.01 77 1005.9
20260904114405 64 70 1.0 5.0 0.01 0.01 0.01 76 1006.0
20260904113405 64 147 2.0 5.0 0.00 0.00 0.00 74 1005.9
20260904112405 65 135 1.0 6.0 0.00 0.00 0.00 72 1005.8
20260904111904 65 142 1.0 6.0 0.00 0.00 0.00 71 1005.8
20260904111404 66 144 2.0 7.0 0.00 0.00 0.00 70 1005.8
20260904104405 65 135 1.0 3.0 0.00 0.00 0.00 71 1005.5
20260904103405 65 132 1.0 3.0 0.00 0.00 0.00 72 1005.5
20260904101905 65 132 0.0 3.0 0.00 0.00 0.00 70 1005.6
20260904100905 65 135 1.0 5.0 0.00 0.00 0.00 71 1005.6
20260904093905 65 51 3.0 5.0 0.00 0.00 0.00 74 1005.7
20260904093405 65 36 2.0 3.0 0.00 0.00 0.00 73 1006.0
20260904091905 65 130 2.0 7.0 0.00 0.00 0.00 69 1006.1
20260904091405 64 137 3.0 5.0 0.00 0.00 0.00 68 1006.1
20260904090905 64 166 2.0 3.0 0.00 0.00 0.00 69 1005.9
20260904085405 64 166 1.0 3.0 0.00 0.00 0.00 69 1005.9
20260904084405 64 166 0.0 0.0 0.00 0.00 0.00 67 1005.8
20260904083905 64 166 0.0 0.0 0.00 0.00 0.00 66 1005.8
20260904083405 64 166 0.0 1.0 0.00 0.00 0.00 67 1005.8
20260904080904 63 166 0.0 0.0 0.00 0.00 0.00 68 1005.9
20260904075905 63 166 0.0 0.0 0.00 0.00 0.00 68 1005.9
20260904074905 63 166 0.0 0.0 0.00 0.00 0.00 67 1006.0
20260904074405 63 166 0.0 1.0 0.00 0.00 0.00 67 1006.0
20260904073905 63 166 0.0 1.0 0.00 0.00 0.00 67 1006.0
20260904073404 63 166 0.0 3.0 0.00 0.00 0.00 67 1006.1
20260904072905 63 166 1.0 3.0 0.00 0.00 0.00 68 1006.1
20260904072404 63 166 0.0 0.0 0.00 0.00 0.00 67 1006.1
20260904071905 63 166 0.0 0.0 0.00 0.00 0.00 67 1006.1
20260904071405 63 166 0.0 0.0 0.00 0.00 0.00 67 1006.2
20260904070405 64 166 0.0 0.0 0.00 0.00 0.00 65 1006.2
20260904065906 64 166 0.0 3.0 0.00 0.00 0.00 64 1006.3
20260904065405 64 166 0.0 3.0 0.00 0.00 0.00 64 1006.3
20260904064905 64 166 1.0 3.0 0.00 0.00 0.00 63 1006.2
20260904064405 64 171 0.0 0.0 0.00 0.00 0.00 64 1006.2
20260904063405 65 171 0.0 0.0 0.00 0.00 0.00 63 1006.1
20260904062905 65 171 0.0 0.0 0.00 0.00 0.00 63 1006.2
20260904062405 65 171 0.0 0.0 0.00 0.00 0.00 63 1006.1
20260904061905 65 171 0.0 0.0 0.00 0.00 0.00 64 1006.2
20260904060905 65 171 0.0 1.0 0.00 0.00 0.00 64 1006.3
20260904060405 65 171 0.0 1.0 0.00 0.00 0.00 63 1006.2
20260904054905 66 171 0.0 0.0 0.00 0.00 0.00 62 1006.3
20260904054405 66 171 0.0 0.0 0.00 0.00 0.00 61 1006.4
20260904051404 66 171 0.0 0.0 0.00 0.00 0.00 57 1006.5
20260904050405 66 171 0.0 1.0 0.00 0.00 0.00 58 1006.5
20260904045905 66 146 0.0 3.0 0.00 0.00 0.00 57 1006.5
20260904045405 66 146 0.0 3.0 0.00 0.00 0.00 57 1006.5
20260904044905 66 144 1.0 3.0 0.00 0.00 0.00 57 1006.4
20260904044405 66 142 2.0 3.0 0.00 0.00 0.00 58 1006.5
20260904043404 66 124 0.0 2.0 0.00 0.00 0.00 60 1006.5
20260904040905 66 67 0.0 2.0 0.00 0.00 0.00 57 1006.6
20260904040404 66 109 0.0 2.0 0.00 0.00 0.00 58 1006.7
20260904034405 67 110 0.0 2.0 0.00 0.00 0.00 58 1006.9
20260904033905 68 46 0.0 1.0 0.00 0.00 0.00 56 1006.8
20260904033405 68 46 0.0 0.0 0.00 0.00 0.00 55 1006.8
20260904031905 70 46 0.0 0.0 0.00 0.00 0.00 51 1006.8
20260904031405 70 46 0.0 0.0 0.00 0.00 0.00 51 1006.8
20260904030905 71 46 0.0 0.0 0.00 0.00 0.00 50 1006.8
20260904030405 72 46 0.0 0.0 0.00 0.00 0.00 49 1006.7
20260904024904 73 46 0.0 3.0 0.00 0.00 0.00 46 1006.5
20260904022905 76 66 0.0 8.0 0.00 0.00 0.00 42 1006.1
20260904022405 76 30 3.0 8.0 0.00 0.00 0.00 40 1005.9
20260904014405 78 204 2.0 5.0 0.00 0.00 0.00 36 1005.2
20260904013905 78 236 1.0 5.0 0.00 0.00 0.00 35 1005.1
20260904013405 78 141 1.0 5.0 0.00 0.00 0.00 36 1005.0
20260904012905 78 141 0.0 6.0 0.00 0.00 0.00 35 1005.0
20260904011905 79 144 1.0 5.0 0.00 0.00 0.00 34 1005.0
20260904010405 79 207 1.0 5.0 0.00 0.00 0.00 34 1004.9
20260904005904 79 243 2.0 6.0 0.00 0.00 0.00 33 1004.9
20260904004405 80 206 1.0 5.0 0.00 0.00 0.00 33 1004.8
20260904002404 81 197 2.0 9.0 0.00 0.00 0.00 31 1004.7
20260904000405 83 202 3.0 8.0 0.00 0.00 0.00 31 1004.7
20260903234405 84 164 3.0 8.0 0.00 0.00 0.00 30 1004.6
20260903233905 84 162 2.0 10.0 0.00 0.00 0.00 30 1004.6
20260903232405 84 231 1.0 10.0 0.00 0.00 0.00 29 1004.6
20260903231904 84 225 3.0 10.0 0.00 0.00 0.00 29 1004.7
20260903225405 85 184 3.0 9.0 0.00 0.00 0.00 29 1004.7
20260903224405 85 202 3.0 9.0 0.00 0.00 0.00 29 1004.9
20260903223905 85 196 4.0 9.0 0.00 0.00 0.00 28 1004.9
20260903221404 86 258 5.0 9.0 0.00 0.00 0.00 28 1005.0
20260903220405 85 237 3.0 6.0 0.00 0.00 0.00 28 1005.1
20260903214404 84 242 2.0 8.0 0.00 0.00 0.00 29 1005.3
20260903213905 84 227 2.0 6.0 0.00 0.00 0.00 28 1005.5
20260903212904 85 226 1.0 6.0 0.00 0.00 0.00 29 1005.6
20260903211904 85 205 3.0 12.0 0.00 0.00 0.00 27 1005.6
20260903205905 85 181 3.0 9.0 0.00 0.00 0.00 27 1006.0
20260903205405 86 204 5.0 9.0 0.00 0.00 0.00 28 1006.0
20260903204905 85 45 2.0 9.0 0.00 0.00 0.00 29 1006.0
20260903203404 84 144 4.0 12.0 0.00 0.00 0.00 30 1006.1
20260903202405 84 161 4.0 12.0 0.00 0.00 0.00 30 1006.2
20260903195404 84 263 4.0 7.0 0.00 0.00 0.00 29 1006.8
20260903193404 84 34 1.0 7.0 0.00 0.00 0.00 32 1007.1
20260903191904 83 246 2.0 6.0 0.00 0.00 0.00 30 1007.4
20260903190905 83 280 2.0 6.0 0.00 0.00 0.00 32 1007.7
20260903190405 83 11 1.0 8.0 0.00 0.00 0.00 32 1007.8
20260903185904 84 181 3.0 8.0 0.00 0.00 0.00 29 1008.0
20260903184904 84 211 1.0 6.0 0.00 0.00 0.00 33 1008.3
20260903183905 83 208 2.0 6.0 0.00 0.00 0.00 32 1008.3
20260903183405 83 243 1.0 6.0 0.00 0.00 0.00 31 1008.4
20260903182905 82 74 0.0 5.0 0.00 0.00 0.00 33 1008.5
20260903181905 81 253 2.0 3.0 0.00 0.00 0.00 33 1008.6
20260903180905 82 90 1.0 3.0 0.00 0.00 0.00 34 1008.8
20260903175905 82 241 2.0 5.0 0.00 0.00 0.00 31 1008.8
20260903174405 81 300 1.0 3.0 0.00 0.00 0.00 34 1009.0
20260903173404 80 98 2.0 3.0 0.00 0.00 0.00 33 1009.0
20260903172904 80 246 2.0 3.0 0.00 0.00 0.00 35 1009.1
20260903170904 78 50 1.0 3.0 0.00 0.00 0.00 38 1009.0
20260903164904 77 319 1.0 6.0 0.00 0.00 0.00 42 1009.1
20260903163404 76 292 2.0 7.0 0.00 0.00 0.00 45 1009.0
20260903161904 76 146 2.0 6.0 0.00 0.00 0.00 45 1009.0
20260903160905 75 282 1.0 6.0 0.00 0.00 0.00 46 1009.0
20260903160404 74 220 2.0 3.0 0.00 0.00 0.00 46 1008.9
20260903155905 74 311 1.0 3.0 0.00 0.00 0.00 46 1008.9
20260903152905 70 228 1.0 3.0 0.00 0.00 0.00 53 1009.2
20260903151905 68 272 1.0 3.0 0.00 0.00 0.00 54 1009.3
20260903150404 66 247 1.0 3.0 0.00 0.00 0.00 54 1009.3
20260903145905 66 227 0.0 2.0 0.00 0.00 0.00 56 1009.4
20260903143904 63 207 0.0 2.0 0.00 0.00 0.00 61 1009.4
20260903142904 61 141 0.0 0.0 0.00 0.00 0.00 66 1009.4